Cahokia, IL

9:35 PM CDT on September 22, 2017 (GMT -0500)
Saint Louis Downtown

Weather History for KCPS - July, 2012

Change the Weather History Date:

Wednesday, July 4, 2012

  Actual Average Record
Temperature  
Mean Temperature 90 °F -  
Max Temperature 104 °F 85 °F 104 °F (2012)
Min Temperature 78 °F 66 °F 55 °F (2014)
Cooling Degree Days 25    
Growing Degree Days 40 (Base 50)    
Moisture  
Dew Point 65 °F    
Average Humidity 49    
Maximum Humidity 77    
Minimum Humidity 21    
Precipitation  
Precipitation 0.00 in - - ()
Sea Level Pressure  
Sea Level Pressure 29.90 in    
Wind  
Wind Speed 3 mph (SW)    
Max Wind Speed 9 mph    
Max Gust Speed -    
Visibility 10 miles    
Events      
Averages and records for this station are not official NWS values.
T = Trace of Precipitation, MM = Missing Value Source: NWS Daily Summary

Daily Weather History Graph

Daily Weather History Graph

Search for Another Location

Airport or City:

Trip Planner

Search our weather history database for the weather conditions in past years. The results will help you decide how hot, cold, wet, or windy it might be!

Date:

Astronomy

Jul. 04, 2012 Rise Set
Actual Time 5:41 AM CDT 8:28 PM CDT
Civil Twilight 5:10 AM CDT 8:59 PM CDT
Nautical Twilight 4:30 AM CDT 9:39 PM CDT
Astronomical Twilight 3:45 AM CDT 10:24 PM CDT
Moon 9:08 PM CDT (7/4) 6:43 AM CDT (7/4)
Length of Visible Light 15h 49m
Length of Day
14h 46m
Full, 99% of the Moon is Illuminated
Jul 4
Full
Jul 10
Last Quarter
Jul 18
New
Jul 26
First Quarter
Aug 1
Full

Hourly Weather History & Observations

Time (CDT) Temp. Heat Index Dew Point Humidity Pressure Visibility Wind Dir Wind Speed Gust Speed Precip Events Conditions
12:53 AM 79.0 °F - 71.1 °F 77% 29.88 in 10.0 mi SSE 3.5 mph - N/A   Clear
1:53 AM 79.0 °F - 71.1 °F 77% 29.88 in 10.0 mi Calm Calm - N/A   Clear
2:53 AM 82.0 °F 86.3 °F 71.1 °F 69% 29.89 in 10.0 mi SW 4.6 mph - N/A   Mostly Cloudy
3:53 AM 81.0 °F 84.4 °F 70.0 °F 69% 29.90 in 10.0 mi Calm Calm - N/A   Partly Cloudy
4:53 AM 80.1 °F 83.2 °F 70.0 °F 71% 29.91 in 10.0 mi Calm Calm - N/A   Mostly Cloudy
5:53 AM 78.1 °F - 70.0 °F 76% 29.92 in 10.0 mi Calm Calm - N/A   Scattered Clouds
6:53 AM 82.0 °F 85.9 °F 70.0 °F 67% 29.93 in 10.0 mi Calm Calm - N/A   Scattered Clouds
7:53 AM 84.0 °F 88.4 °F 70.0 °F 63% 29.95 in 10.0 mi Calm Calm - N/A   Clear
9:53 AM 91.9 °F 94.1 °F 64.9 °F 41% 29.96 in 10.0 mi WNW 6.9 mph - N/A   Clear
11:53 AM 97.0 °F 97.4 °F 61.0 °F 30% 29.95 in 10.0 mi West 4.6 mph - N/A   Clear
12:53 PM 98.1 °F 97.7 °F 59.0 °F 27% 29.94 in 10.0 mi Variable 5.8 mph - N/A   Clear
1:53 PM 99.0 °F 98.1 °F 57.9 °F 25% 29.92 in 10.0 mi Variable 3.5 mph - N/A   Clear
2:53 PM 102.9 °F 101.9 °F 55.9 °F 21% 29.91 in 10.0 mi NW 9.2 mph - N/A   Clear
3:53 PM 102.0 °F 101.6 °F 57.9 °F 23% 29.89 in 10.0 mi West 8.1 mph - N/A   Partly Cloudy
5:53 PM 102.0 °F 101.6 °F 57.9 °F 23% 29.86 in 10.0 mi Calm Calm - N/A   Clear
6:53 PM 99.0 °F 100.5 °F 62.1 °F 30% 29.86 in 10.0 mi Calm Calm - N/A   Clear
7:53 PM 93.0 °F 95.0 °F 64.9 °F 39% 29.86 in 10.0 mi East 5.8 mph - N/A   Clear
8:53 PM 88.0 °F 89.6 °F 64.9 °F 46% 29.88 in 10.0 mi Calm Calm - N/A   Clear
9:53 PM 84.9 °F 87.1 °F 66.0 °F 53% 29.89 in 10.0 mi Calm Calm - N/A   Clear
10:53 PM 84.9 °F 86.1 °F 64.0 °F 49% 29.90 in 7.0 mi SSE 3.5 mph - N/A   Clear
11:53 PM 82.9 °F 84.6 °F 64.9 °F 54% 29.90 in 10.0 mi SSE 4.6 mph - N/A   Clear